Overview Statistics Trail Chart Weather Telemetry Raw packets
 

This is the latest recevied weather packets stored in our database for station/object KI5RAB. If no packets are shown the sender has not sent any weather packets the latest 10 day(s).

<< 52 53 54 55 56 57 58 >>
Time Temp. Humidity Pressure Rain* Wind** Luminosity Snow
1788310357 33.89° C 48% 1015.7 hPa 0 mm - 5 W/m² -
1788310051 33.89° C 48% 1015.8 hPa 0 mm - 8 W/m² -
1788309746 33.89° C 48% 1015.8 hPa 0 mm - 11 W/m² -
1788309441 34.44° C 47% 1015.6 hPa 0 mm - 14 W/m² -
1788309136 34.44° C 46% 1015.8 hPa 0 mm - 18 W/m² -
1788308832 35° C 45% 1015.7 hPa 0 mm - 21 W/m² -
1788308527 35° C 46% 1015.9 hPa 0 mm - 24 W/m² -
1788308222 35° C 46% 1016 hPa 0 mm - 27 W/m² -
1788307922 35.56° C 44% 1015.7 hPa 0 mm - 29 W/m² -
1788307628 35.56° C 43% 1015.7 hPa 0 mm - 32 W/m² -
1788307312 35.56° C 43% 1015.8 hPa 0 mm - 34 W/m² -
1788307011 35.56° C 43% 1015.7 hPa 0 mm - 45 W/m² -
1788306707 36.11° C 41% 1016 hPa 0 mm - 41 W/m² -
1788306406 36.67° C 41% 1016 hPa 0 mm - 61 W/m² -
1788306101 36.67° C 43% 1015.8 hPa 0 mm - 45 W/m² -
1788305796 36.67° C 42% 1015.7 hPa 0 mm - 55 W/m² -
1788305492 36.67° C 43% 1015.9 hPa 0 mm - 105 W/m² -
1788305192 36.11° C 42% 1015.7 hPa 0 mm - 115 W/m² -
1788304887 36.11° C 41% 1016 hPa 0 mm - 106 W/m² -
1788304584 36.67° C 42% 1016.1 hPa 0 mm - 113 W/m² -
1788304280 36.67° C 40% 1016 hPa 0 mm - 135 W/m² -
1788303975 37.22° C 39% 1016 hPa 0 mm - 143 W/m² -
1788303669 37.22° C 37% 1016 hPa 0 mm - 180 W/m² -
1788303364 37.22° C 38% 1016.2 hPa 0 mm - 184 W/m² -
1788303064 36.67° C 39% 1016.1 hPa 0 mm - 207 W/m² -

* Rain latest hour (hover to see other rain measurements)
** Current wind speed in m/s (hover to see current wind gust speed)